FW5729 Weather Reports


Display with metric or nautical units.
time (UTC)temp
F
wind
direction
speed
MPH
gust
MPH
rain 1hr
in
rain 24hr
in
rain mn
in
humidity
%
barometer
mb
20260506154543 62 15 6.0 17.0 0.00 0.00 0.00 86 1012.0
20260506153034 64 86 7.0 12.0 0.00 0.00 0.00 87 1011.9
20260506151532 66 94 5.0 11.0 0.00 0.00 0.00 85 1012.1
20260506150033 67 345 9.0 17.0 0.00 0.00 0.00 86 1011.6
20260506144530 74 68 10.0 18.0 0.00 0.00 0.00 81 1010.8
20260506143043 76 0 0.0 4.0 0.00 0.00 0.00 89 1009.7
20260506141537 76 0 0.0 3.0 0.00 0.00 0.00 90 1009.3
20260506140032 75 0 0.0 3.0 0.00 0.00 0.00 92 1009.2
20260506134531 74 52 0.0 3.0 0.00 0.00 0.00 92 1009.7
20260506133033 74 67 1.0 3.0 0.00 0.00 0.00 92 1008.8
20260506131533 74 77 0.0 2.0 0.00 0.00 0.00 93 1009.0
20260506130033 74 0 0.0 0.0 0.00 0.00 0.00 93 1008.7
20260506124533 73 0 0.0 0.0 0.00 0.00 0.00 94 1008.4
20260506123033 73 0 0.0 0.0 0.00 0.00 0.00 94 1008.2
20260506121540 73 0 0.0 0.0 0.00 0.00 0.00 94 1008.2
20260506120033 73 0 0.0 0.0 0.00 0.00 0.00 94 1008.3
20260506114541 73 0 0.0 0.0 0.00 0.00 0.00 93 1008.4
20260506113032 73 0 0.0 0.0 0.00 0.00 0.00 93 1008.4
20260506111538 73 0 0.0 0.0 0.00 0.00 0.00 92 1008.5
20260506110034 74 0 0.0 0.0 0.00 0.00 0.00 91 1008.5
20260506104534 74 0 0.0 0.0 0.00 0.00 0.00 90 1008.2
20260506103033 74 0 0.0 0.0 0.00 0.00 0.00 89 1008.4
20260506101534 74 0 0.0 0.0 0.00 0.00 0.00 89 1008.0
20260506100032 74 0 0.0 1.0 0.00 0.00 0.00 89 1007.8
20260506094535 74 0 0.0 0.0 0.00 0.00 0.00 89 1007.9
20260506093032 75 0 0.0 1.0 0.00 0.00 0.00 89 1007.6
20260506091532 75 214 0.0 2.0 0.00 0.00 0.00 88 1007.3
20260506090031 75 0 0.0 0.0 0.00 0.00 0.00 88 1007.2
20260506084532 75 0 0.0 1.0 0.00 0.00 0.00 88 1007.0
20260506083032 75 0 0.0 4.0 0.00 0.00 0.00 87 1007.1
20260506081528 75 0 0.0 4.0 0.00 0.00 0.00 87 1007.3
20260506073038 75 238 0.0 6.0 0.00 0.00 0.00 87 1007.5
20260506071532 75 0 2.0 9.0 0.00 0.00 0.00 87 1007.6
20260506061536 75 0 0.0 6.0 0.00 0.00 0.00 89 1007.5
20260506044542 75 0 0.0 1.0 0.00 0.00 0.00 88 1007.7
20260506043038 75 0 0.0 5.0 0.00 0.00 0.00 88 1007.5
20260506041533 75 0 0.0 3.0 0.00 0.00 0.00 87 1007.6
20260506040051 76 203 0.0 3.0 0.00 0.00 0.00 87 1007.5
20260506034534 76 0 0.0 1.0 0.00 0.00 0.00 86 1007.3
20260506033034 76 204 0.0 2.0 0.00 0.00 0.00 85 1006.9
20260506031547 76 0 0.0 2.0 0.00 0.00 0.00 84 1006.8
20260506030031 77 0 0.0 0.0 0.00 0.00 0.00 83 1006.7
20260506024540 77 0 0.0 0.0 0.00 0.00 0.00 82 1006.5
20260506023036 77 0 0.0 1.0 0.00 0.00 0.00 81 1006.1
20260506021534 78 0 0.0 1.0 0.00 0.00 0.00 80 1005.9
20260506020032 78 0 0.0 3.0 0.00 0.00 0.00 79 1005.6
20260506014533 79 0 0.0 0.0 0.00 0.00 0.00 77 1005.2
20260506013039 79 214 0.0 0.0 0.00 0.00 0.00 76 1005.1
20260506011538 80 0 0.0 1.0 0.00 0.00 0.00 74 1005.3
20260506010036 81 0 0.0 1.0 0.00 0.00 0.00 72 1005.0
20260506004531 82 0 0.0 3.0 0.00 0.00 0.00 71 1005.2
20260506003037 83 0 0.0 1.0 0.00 0.00 0.00 70 1005.3
20260506001538 83 0 0.0 2.0 0.00 0.00 0.00 69 1005.2
20260506000033 84 188 0.0 3.0 0.00 0.00 0.00 67 1005.3
20260505234534 85 0 0.0 5.0 0.00 0.00 0.00 66 1005.3
20260505233031 85 193 0.0 6.0 0.00 0.00 0.00 66 1005.0
20260505231547 85 219 1.0 4.0 0.00 0.00 0.00 63 1004.8
20260505230034 86 193 0.0 4.0 0.00 0.00 0.00 63 1004.8
20260505224532 86 0 1.0 9.0 0.00 0.00 0.00 62 1004.9
20260505223039 87 215 1.0 6.0 0.00 0.00 0.00 61 1004.8
20260505221533 87 219 1.0 6.0 0.00 0.00 0.00 60 1004.7
20260505220038 88 55 1.0 6.0 0.00 0.00 0.00 60 1004.8
20260505214536 89 213 2.0 10.0 0.00 0.00 0.00 55 1004.9
20260505213035 89 0 0.0 4.0 0.00 0.00 0.00 60 1005.1
20260505211532 89 155 1.0 7.0 0.00 0.00 0.00 59 1004.9
20260505210033 89 203 2.0 7.0 0.00 0.00 0.00 58 1005.3
20260505204536 88 208 1.0 8.0 0.00 0.00 0.00 59 1005.4
20260505203037 88 0 3.0 7.0 0.00 0.00 0.00 58 1005.5
20260505201535 88 0 0.0 7.0 0.00 0.00 0.00 61 1005.9
20260505200041 88 188 0.0 7.0 0.00 0.00 0.00 60 1006.2
20260505194532 87 0 1.0 6.0 0.00 0.00 0.00 62 1006.1
20260505193032 86 0 0.0 5.0 0.00 0.00 0.00 62 1006.5
20260505191540 86 0 0.0 6.0 0.00 0.00 0.00 68 1006.7
20260505190039 85 0 1.0 4.0 0.00 0.00 0.00 64 1006.7
20260505184532 84 211 1.0 5.0 0.00 0.00 0.00 65 1006.9
20260505183035 82 0 0.0 4.0 0.00 0.00 0.00 70 1007.2
20260505181533 81 0 0.0 4.0 0.00 0.00 0.00 72 1007.6
20260505180040 80 0 0.0 5.0 0.00 0.00 0.00 72 1007.8
20260505174540 79 251 1.0 5.0 0.00 0.00 0.00 75 1007.9
20260505173032 78 76 0.0 4.0 0.00 0.00 0.00 76 1007.9
20260505171534 76 38 1.0 5.0 0.00 0.00 0.00 78 1008.1
20260505170030 76 0 0.0 7.0 0.00 0.00 0.00 80 1008.2
20260505164533 75 0 0.0 3.0 0.00 0.00 0.00 82 1008.2
20260505163036 74 0 0.0 4.0 0.00 0.00 0.00 84 1008.2
20260505161535 73 0 0.0 2.0 0.00 0.00 0.00 84 1008.2